Weather History for Robstown, TX

Change the Weather History Date:

Thursday, January 31, 2013

  Actual Average (KCRP) Record (KCRP)
Temperature  
Mean Temperature 53 °F 58 °F  
Max Temperature 71 °F 68 °F 85 °F (2002)
Min Temperature 35 °F 48 °F 20 °F (1949)
Degree Days  
Heating Degree Days 12 8  
Month to date heating degree days 271  
Since 1 July heating degree days 627  
Cooling Degree Days 0 1  
Month to date cooling degree days 30  
Year to date cooling degree days 30  
Growing Degree Days 3 (Base 50)    
Moisture  
Dew Point 24 °F    
Average Humidity 34    
Maximum Humidity 62    
Minimum Humidity 13    
Precipitation  
Precipitation 0.00 in 0.04 in 1.58 in (1921)
Month to date precipitation 1.54  
Year to date precipitation 1.54  
Snow  
Snow 0.00 in - - ()
Month to date snowfall  
Since 1 July snowfall  
Snow Depth -    
Sea Level Pressure  
Sea Level Pressure 30.27 in    
Wind  
Wind Speed 5 mph (South)    
Max Wind Speed 21 mph    
Max Gust Speed 23 mph    
Visibility 10 miles    
Events      
T = Trace of Precipitation, MM = Missing Value Source: NWS Daily Summary

Daily Weather History Graph

Daily Weather History Graph

Search for Another Location

Airport:

Trip Planner

Search our weather history database for the weather conditions in past years. The results will help you decide how hot, cold, wet, or windy it might be!

Date:

Astronomy

Jan. 31, 2013 Rise Set
Actual Time 7:17 AM CST 6:10 PM CST
Civil Twilight 6:53 AM CST 6:35 PM CST
Nautical Twilight 6:25 AM CST 7:03 PM CST
Astronomical Twilight 5:57 AM CST 7:31 PM CST
Moon 10:42 PM CST (1/31) 9:47 AM CST (1/31)
Length of Visible Light 11h 42m
Length of Day
10h 53m
Waning Gibbous, 79% of the Moon is Illuminated
Jan 31
Waning Gibbous
Feb 3
Last Quarter
Feb 10
New
Feb 17
First Quarter
Feb 25
Full

Hourly Weather History & Observations

Time (CST) Temp. Windchill Dew Point Humidity Pressure Visibility Wind Dir Wind Speed Gust Speed Precip Events Conditions
12:15 AM 50.0 °F - 14.4 °F 24% 30.25 in 10.0 mi ENE 5.8 mph - N/A   Clear
12:35 AM 47.5 °F - 14.4 °F 27% 30.26 in 10.0 mi East 3.5 mph - N/A   Clear
12:55 AM 47.7 °F - 14.9 °F 27% 30.26 in 10.0 mi ENE 3.5 mph - N/A   Clear
1:15 AM 45.3 °F - 16.7 °F 32% 30.26 in 10.0 mi Calm Calm - N/A   Clear
1:35 AM 44.1 °F - 13.8 °F 29% 30.26 in 10.0 mi Calm Calm - N/A   Clear
1:55 AM 40.1 °F - 11.8 °F 32% 30.26 in 10.0 mi Calm Calm - N/A   Clear
2:15 AM 42.1 °F - 14.5 °F 33% 30.25 in 10.0 mi Calm Calm - N/A   Clear
2:35 AM 39.6 °F - 12.4 °F 33% 30.25 in 10.0 mi Calm Calm - N/A   Clear
2:55 AM 38.8 °F - 12.9 °F 35% 30.25 in 10.0 mi Calm Calm - N/A   Clear
3:15 AM 36.3 °F 31.6 °F 11.8 °F 36% 30.26 in 10.0 mi WSW 5.8 mph - N/A   Clear
3:35 AM 35.6 °F 30.7 °F 10.9 °F 36% 30.26 in 10.0 mi WSW 5.8 mph - N/A   Clear
3:55 AM 36.1 °F 33.5 °F 12.0 °F 37% 30.25 in 10.0 mi WSW 3.5 mph - N/A   Clear
4:15 AM 35.8 °F 31.9 °F 12.2 °F 38% 30.27 in 10.0 mi WSW 4.6 mph - N/A   Clear
4:35 AM 36.1 °F 32.3 °F 12.9 °F 39% 30.26 in 10.0 mi West 4.6 mph - N/A   Clear
4:55 AM 35.6 °F 30.7 °F 12.2 °F 38% 30.26 in 10.0 mi West 5.8 mph - N/A   Clear
5:15 AM 35.6 °F 30.7 °F 13.3 °F 40% 30.27 in 10.0 mi WSW 5.8 mph - N/A   Clear
5:35 AM 36.3 °F 33.7 °F 14.0 °F 40% 30.26 in 10.0 mi WSW 3.5 mph - N/A   Clear
5:55 AM 37.4 °F 34.9 °F 14.4 °F 39% 30.27 in 10.0 mi West 3.5 mph - N/A   Clear
6:15 AM 37.4 °F 32.8 °F 16.3 °F 42% 30.28 in 10.0 mi West 5.8 mph - N/A   Clear
6:35 AM 37.9 °F - 16.7 °F 42% 30.27 in 10.0 mi Calm Calm - N/A   Clear
6:55 AM 36.9 °F 34.3 °F 15.6 °F 42% 30.29 in 10.0 mi West 3.5 mph - N/A   Clear
7:15 AM 36.5 °F 32.7 °F 15.4 °F 42% 30.30 in 10.0 mi West 4.6 mph - N/A   Clear
7:55 AM 37.4 °F 34.9 °F 17.8 °F 45% 30.30 in 10.0 mi West 3.5 mph - N/A   Clear
8:15 AM 41.0 °F - 21.4 °F 46% 30.31 in 10.0 mi Calm Calm - N/A   Clear
8:35 AM 45.0 °F 43.5 °F 19.9 °F 37% 30.32 in 10.0 mi West 3.5 mph - N/A   Clear
8:55 AM 49.3 °F - 22.1 °F 34% 30.32 in 10.0 mi WSW 4.6 mph - N/A   Clear
9:15 AM 51.8 °F - 24.6 °F 35% 30.33 in 10.0 mi WSW 4.6 mph - N/A   Clear
9:35 AM 54.9 °F - 27.9 °F 35% 30.33 in 10.0 mi SW 3.5 mph - N/A   Clear
9:55 AM 57.2 °F - 29.1 °F 34% 30.34 in 10.0 mi SSW 3.5 mph - N/A   Clear
10:15 AM 62.2 °F - 30.9 °F 31% 30.34 in 10.0 mi South 4.6 mph - N/A   Clear
10:35 AM 64.6 °F - 28.9 °F 26% 30.34 in 10.0 mi South 9.2 mph 16.1 mph N/A   Clear
10:55 AM 66.2 °F - 22.1 °F 19% 30.35 in 10.0 mi South 10.4 mph 16.1 mph N/A   Clear
11:15 AM 66.4 °F - 21.0 °F 18% 30.35 in 10.0 mi SSW 10.4 mph 16.1 mph N/A   Clear
11:35 AM 67.3 °F - 18.9 °F 16% 30.33 in 10.0 mi South 9.2 mph - N/A   Clear
11:55 AM 67.8 °F - 16.7 °F 14% 30.32 in 10.0 mi South 11.5 mph 16.1 mph N/A   Clear
12:15 PM 68.0 °F - 16.7 °F 14% 30.31 in 10.0 mi SE 5.8 mph - N/A   Clear
12:35 PM 68.5 °F - 16.9 °F 14% 30.31 in 10.0 mi SSE 5.8 mph - N/A   Clear
12:55 PM 69.1 °F - 17.4 °F 14% 30.30 in 10.0 mi SE 6.9 mph - N/A   Clear
1:15 PM 69.4 °F - 18.3 °F 14% 30.28 in 10.0 mi SSW 5.8 mph - N/A   Clear
1:35 PM 70.7 °F - 18.0 °F 13% 30.27 in 10.0 mi South 8.1 mph - N/A   Clear
1:55 PM 70.9 °F - 17.6 °F 13% 30.26 in 10.0 mi SSW 5.8 mph - N/A   Clear
2:15 PM 70.7 °F - 17.6 °F 13% 30.24 in 10.0 mi South 4.6 mph - N/A   Clear
2:35 PM 71.6 °F - 17.6 °F 13% 30.23 in 10.0 mi South 5.8 mph - N/A   Clear
2:55 PM 71.8 °F - 17.2 °F 13% 30.23 in 10.0 mi SSE 6.9 mph - N/A   Clear
3:15 PM 71.6 °F - 17.2 °F 13% 30.22 in 10.0 mi SSW 5.8 mph - N/A   Clear
3:35 PM 71.4 °F - 18.7 °F 14% 30.22 in 10.0 mi SW 6.9 mph - N/A   Clear
3:55 PM 71.6 °F - 20.8 °F 15% 30.22 in 10.0 mi WSW 4.6 mph - N/A   Clear
4:15 PM 71.6 °F - 28.0 °F 20% 30.22 in 10.0 mi SSE 13.8 mph - N/A   Clear
4:35 PM 70.3 °F - 28.0 °F 21% 30.22 in 10.0 mi SSE 12.7 mph 19.6 mph N/A   Clear
4:55 PM 69.1 °F - 29.3 °F 23% 30.21 in 10.0 mi SSE 17.3 mph - N/A   Clear
5:15 PM 67.5 °F - 32.0 °F 27% 30.22 in 10.0 mi SE 20.7 mph - N/A   Clear
5:35 PM 66.2 °F - 32.9 °F 29% 30.22 in 10.0 mi SSE 16.1 mph - N/A   Clear
5:55 PM 64.8 °F - 34.9 °F 33% 30.22 in 10.0 mi SE 17.3 mph 23.0 mph N/A   Clear
6:15 PM 63.5 °F - 35.6 °F 35% 30.23 in 10.0 mi SE 15.0 mph - N/A   Clear
6:35 PM 62.4 °F - 37.0 °F 39% 30.23 in 10.0 mi SE 15.0 mph - N/A   Clear
6:55 PM 61.5 °F - 37.4 °F 41% 30.24 in 10.0 mi SE 11.5 mph - N/A   Clear
7:15 PM 60.8 °F - 38.5 °F 44% 30.25 in 10.0 mi SE 9.2 mph - N/A   Clear
7:35 PM 60.1 °F - 39.4 °F 46% 30.25 in 10.0 mi SSE 9.2 mph - N/A   Clear
7:55 PM 60.1 °F - 40.6 °F 49% 30.27 in 10.0 mi SSE 9.2 mph - N/A   Clear
8:15 PM 59.9 °F - 40.5 °F 49% 30.27 in 10.0 mi SSE 9.2 mph - N/A   Clear
8:35 PM 60.1 °F - 41.4 °F 50% 30.28 in 10.0 mi SE 9.2 mph - N/A   Clear
8:55 PM 60.1 °F - 42.3 °F 52% 30.28 in 10.0 mi SE 9.2 mph - N/A   Clear
9:15 PM 59.5 °F - 43.5 °F 55% 30.30 in 10.0 mi SE 6.9 mph - N/A   Clear
9:35 PM 59.0 °F - 43.2 °F 56% 30.30 in 10.0 mi SE 5.8 mph - N/A   Clear
9:55 PM 58.8 °F - 43.9 °F 58% 30.29 in 10.0 mi SSE 9.2 mph - N/A   Clear
10:15 PM 59.2 °F - 43.7 °F 57% 30.30 in 10.0 mi SE 8.1 mph - N/A   Clear
10:35 PM 59.0 °F - 44.2 °F 58% 30.30 in 10.0 mi SE 5.8 mph - N/A   Clear
10:55 PM 57.7 °F - 43.9 °F 60% 30.30 in 10.0 mi SE 6.9 mph - N/A   Clear
11:15 PM 57.4 °F - 44.6 °F 62% 30.30 in 10.0 mi SE 5.8 mph - N/A   Clear
11:35 PM 56.7 °F - 43.5 °F 61% 30.30 in 10.0 mi ESE 5.8 mph - N/A   Clear